User: anonymous   Login
Location: Ward Pound Ridge Reservation
(41.2500°N, 73.6000°W)
Time: 22:23:44
(UTC-04:00)
Language:

FO-29 - Orbit

View from above orbital plane
View from above orbital plane
View from above satellite
View from above satellite

Ground track
Ground track

The orbit data is extracted from the following two-line orbital elements,

1 24278U 96046B   18291.49559298 -.00000021  00000-0  12559-4 0  9990
2 24278  98.5148 113.2564 0350822 150.8177 211.3074 13.53086535 94911
Epoch (UTC): 18 October 2018 11:53:39
Eccentricity: 0.0350822
inclination: 98.5148°
perigee height: 800 km
apogee height: 1322 km
right ascension of ascending node: 113.2564°
argument of perigee: 150.8177°
revolutions per day: 13.53086535
mean anomaly at epoch: 211.3074°
orbit number at epoch: 9491

The dashed part of the orbit path shows where the satellite is in the earth's shadow,  

DLR